When you browse on this site, cookies collect data to enhance your experience and personalize the content and advertising you see.
Visit our Privacy Policy to learn more. By continuing to use the site, you agree to this use of cookies and data.
  • en France
  • Liste des pays
  • À 7 jours
  • Température de l'eau
  • Carte satellitaire
  • Carte météo
  • Widgets météo
  • user-avatar
    Se connecter

    Météo par heure à Oran

    Ce jour, 23 Janvier, Mercredi

    Heure Température Précipitation Vent Pression Humidité
    00:00 +10°C° 0.3 mm 12 m/s 749 mmHg 77%
    01:00 +10°C° 0.7 mm 12 m/s 749 mmHg 78%
    02:00 +10°C° 0.7 mm 12 m/s 748 mmHg 79%
    03:00 +10°C° 0.7 mm 12 m/s 748 mmHg 80%
    04:00 +10°C° 1.3 mm 12 m/s 748 mmHg 79%
    05:00 +10°C° 1.3 mm 12 m/s 748 mmHg 77%
    06:00 +10°C° 1.3 mm 12 m/s 747 mmHg 76%
    07:00 +12°C° 0.5 mm 11 m/s 748 mmHg 76%
    08:00 +12°C° 0.5 mm 11 m/s 748 mmHg 75%
    09:00 +12°C° 0.5 mm 11 m/s 748 mmHg 74%
    10:00 +13°C° 0 mm 12 m/s 748 mmHg 72%
    11:00 +13°C° 0 mm 13 m/s 747 mmHg 69%
    12:00 +13°C° 0 mm 15 m/s 747 mmHg 67%
    13:00 +13°C° 0 mm 15 m/s 747 mmHg 68%
    14:00 +13°C° 0 mm 14 m/s 747 mmHg 69%
    15:00 +13°C° 0 mm 14 m/s 747 mmHg 70%
    16:00 +13°C° 0 mm 13 m/s 747 mmHg 72%
    17:00 +13°C° 0 mm 12 m/s 747 mmHg 73%
    18:00 +12°C° 0 mm 12 m/s 747 mmHg 75%
    19:00 +12°C° 0 mm 12 m/s 747 mmHg 76%
    20:00 +12°C° 0 mm 12 m/s 747 mmHg 77%
    21:00 +12°C° 0 mm 12 m/s 747 mmHg 78%
    22:00 +12°C° 0 mm 12 m/s 747 mmHg 79%
    23:00 +12°C° 0 mm 12 m/s 747 mmHg 79%

    Demain, 24 Janvier, Jeudi

    Heure Température Précipitation Vent Pression Humidité
    00:00 +12°C° 0 mm 12 m/s 747 mmHg 80%
    01:00 +12°C° 0.1 mm 11 m/s 747 mmHg 81%
    02:00 +12°C° 0.1 mm 10 m/s 747 mmHg 82%
    03:00 +12°C° 0.1 mm 10 m/s 747 mmHg 83%
    04:00 +12°C° 0.1 mm 9 m/s 747 mmHg 83%
    05:00 +12°C° 0.1 mm 9 m/s 747 mmHg 83%
    06:00 +12°C° 0.1 mm 9 m/s 747 mmHg 83%
    07:00 +12°C° 0.1 mm 9 m/s 747 mmHg 81%
    08:00 +13°C° 0.1 mm 9 m/s 747 mmHg 79%
    09:00 +13°C° 0.1 mm 10 m/s 748 mmHg 77%
    10:00 +13°C° 0.1 mm 10 m/s 748 mmHg 75%
    11:00 +14°C° 0.1 mm 10 m/s 748 mmHg 72%
    12:00 +16°C° 0.1 mm 10 m/s 748 mmHg 69%
    13:00 +16°C° 0.1 mm 9 m/s 748 mmHg 69%
    14:00 +16°C° 0.1 mm 9 m/s 747 mmHg 68%
    15:00 +16°C° 0.1 mm 8 m/s 747 mmHg 68%
    16:00 +15°C° 0.1 mm 8 m/s 747 mmHg 72%
    17:00 +14°C° 0.1 mm 7 m/s 748 mmHg 77%
    18:00 +13°C° 0.1 mm 6 m/s 748 mmHg 82%
    19:00 +13°C° 0.3 mm 6 m/s 748 mmHg 82%
    20:00 +13°C° 0.3 mm 6 m/s 749 mmHg 83%
    21:00 +13°C° 0.3 mm 6 m/s 749 mmHg 84%
    22:00 +13°C° 0.3 mm 6 m/s 749 mmHg 83%
    23:00 +13°C° 0.3 mm 6 m/s 749 mmHg 83%

    Après-demain, 25 Janvier, Vendredi

    Heure Température Précipitation Vent Pression Humidité
    00:00 +13°C° 0.3 mm 6 m/s 749 mmHg 83%
    01:00 +13°C° 0.1 mm 6 m/s 749 mmHg 81%
    02:00 +13°C° 0.1 mm 6 m/s 750 mmHg 78%
    03:00 +13°C° 0.1 mm 6 m/s 750 mmHg 76%
    04:00 +13°C° 0 mm 5 m/s 750 mmHg 76%
    05:00 +13°C° 0 mm 4 m/s 750 mmHg 75%
    06:00 +12°C° 0 mm 4 m/s 750 mmHg 75%
    07:00 +13°C° 0 mm 3 m/s 751 mmHg 71%
    08:00 +14°C° 0 mm 3 m/s 751 mmHg 67%
    09:00 +15°C° 0 mm 2 m/s 752 mmHg 63%
    10:00 +16°C° 0 mm 3 m/s 752 mmHg 58%
    11:00 +17°C° 0 mm 4 m/s 752 mmHg 53%
    12:00 +18°C° 0 mm 4 m/s 752 mmHg 48%
    13:00 +17°C° 0 mm 5 m/s 752 mmHg 48%
    14:00 +17°C° 0 mm 5 m/s 752 mmHg 48%
    15:00 +17°C° 0 mm 5 m/s 751 mmHg 48%
    16:00 +16°C° 0 mm 5 m/s 751 mmHg 55%
    17:00 +15°C° 0 mm 4 m/s 751 mmHg 62%
    18:00 +14°C° 0 mm 4 m/s 751 mmHg 69%
    19:00 +13°C° 0 mm 4 m/s 752 mmHg 68%
    20:00 +13°C° 0 mm 4 m/s 752 mmHg 67%
    21:00 +13°C° 0 mm 4 m/s 752 mmHg 67%
    22:00 +13°C° 0 mm 4 m/s 752 mmHg 66%
    23:00 +13°C° 0 mm 4 m/s 752 mmHg 66%

    26 Janvier, Samedi

    Heure Température Précipitation Vent Pression Humidité
    00:00 +12°C° 0 mm 3 m/s 752 mmHg 65%
    01:00 +12°C° 0 mm 3 m/s 752 mmHg 69%
    02:00 +12°C° 0 mm 3 m/s 752 mmHg 73%
    03:00 +12°C° 0 mm 3 m/s 752 mmHg 77%
    04:00 +12°C° 0 mm 3 m/s 752 mmHg 79%
    05:00 +11°C° 0 mm 3 m/s 752 mmHg 80%
    06:00 +12°C° 0 mm 2 m/s 752 mmHg 82%
    07:00 +13°C° 0 mm 2 m/s 753 mmHg 78%
    08:00 +14°C° 0 mm 2 m/s 753 mmHg 73%
    09:00 +15°C° 0 mm 2 m/s 754 mmHg 69%
    10:00 +15°C° 0 mm 2 m/s 754 mmHg 63%
    11:00 +16°C° 0 mm 2 m/s 753 mmHg 58%
    12:00 +17°C° 0 mm 2 m/s 753 mmHg 52%
    13:00 +17°C° 0 mm 2 m/s 753 mmHg 50%
    14:00 +17°C° 0 mm 2 m/s 752 mmHg 48%
    15:00 +18°C° 0 mm 2 m/s 752 mmHg 46%
    16:00 +16°C° 0 mm 1 m/s 752 mmHg 51%
    17:00 +15°C° 0 mm 1 m/s 752 mmHg 57%
    18:00 +14°C° 0 mm 1 m/s 752 mmHg 62%
    19:00 +14°C° 0 mm 1 m/s 752 mmHg 59%
    20:00 +14°C° 0 mm 2 m/s 752 mmHg 57%
    21:00 +14°C° 0 mm 2 m/s 752 mmHg 55%
    22:00 +12°C° 0 mm 3 m/s 752 mmHg 56%
    23:00 +12°C° 0 mm 3 m/s 752 mmHg 57%

    27 Janvier, Dimanche

    Heure Température Précipitation Vent Pression Humidité
    00:00 +12°C° 0 mm 4 m/s 752 mmHg 58%
    01:00 +12°C° 0 mm 4 m/s 751 mmHg 59%
    02:00 +12°C° 0 mm 4 m/s 751 mmHg 60%
    03:00 +12°C° 0 mm 4 m/s 750 mmHg 61%
    04:00 +12°C° 0 mm 4 m/s 750 mmHg 63%
    05:00 +10°C° 0 mm 5 m/s 750 mmHg 64%
    06:00 +10°C° 0 mm 6 m/s 750 mmHg 66%
    07:00 +11°C° 0 mm 7 m/s 750 mmHg 69%
    08:00 +12°C° 0 mm 8 m/s 750 mmHg 72%
    09:00 +13°C° 0 mm 9 m/s 750 mmHg 75%
    10:00 +15°C° 0 mm 8 m/s 750 mmHg 72%
    11:00 +16°C° 0 mm 8 m/s 750 mmHg 69%
    12:00 +16°C° 0 mm 8 m/s 750 mmHg 66%
    13:00 +16°C° 0.2 mm 6 m/s 749 mmHg 65%
    14:00 +16°C° 0.2 mm 5 m/s 749 mmHg 64%
    15:00 +15°C° 0.2 mm 4 m/s 748 mmHg 63%
    16:00 +14°C° 0.1 mm 3 m/s 748 mmHg 66%
    17:00 +14°C° 0.1 mm 2 m/s 748 mmHg 69%
    18:00 +14°C° 0.1 mm 1 m/s 748 mmHg 72%
    19:00 +13°C° 0 mm 2 m/s 749 mmHg 73%
    20:00 +13°C° 0 mm 2 m/s 749 mmHg 74%
    21:00 +12°C° 0 mm 2 m/s 749 mmHg 75%
    22:00 +11°C° 0.1 mm 3 m/s 749 mmHg 73%
    23:00 +12°C° 0.1 mm 4 m/s 748 mmHg 71%

    28 Janvier, Lundi

    Heure Température Précipitation Vent Pression Humidité
    00:00 +12°C° 0.1 mm 4 m/s 748 mmHg 68%
    01:00 +11°C° 1.5 mm 4 m/s 748 mmHg 73%
    02:00 +10°C° 1.5 mm 4 m/s 748 mmHg 77%
    03:00 +9°C° 1.5 mm 3 m/s 747 mmHg 81%
    04:00 +10°C° 0.8 mm 4 m/s 747 mmHg 79%
    05:00 +10°C° 0.8 mm 4 m/s 747 mmHg 78%
    06:00 +9°C° 0.8 mm 5 m/s 747 mmHg 76%
    07:00 +9°C° 1.2 mm 5 m/s 748 mmHg 74%
    08:00 +8°C° 1.2 mm 6 m/s 748 mmHg 73%
    09:00 +8°C° 1.2 mm 6 m/s 748 mmHg 71%
    10:00 +9°C° 0.6 mm 7 m/s 749 mmHg 64%
    11:00 +9°C° 0.6 mm 8 m/s 749 mmHg 58%
    12:00 +10°C° 0.6 mm 8 m/s 749 mmHg 51%
    13:00 +10°C° 0.1 mm 9 m/s 749 mmHg 48%
    14:00 +10°C° 0.1 mm 9 m/s 749 mmHg 45%
    15:00 +11°C° 0.1 mm 9 m/s 749 mmHg 42%
    16:00 +10°C° 0.1 mm 9 m/s 749 mmHg 46%
    17:00 +10°C° 0.1 mm 8 m/s 749 mmHg 49%
    18:00 +9°C° 0.1 mm 8 m/s 750 mmHg 52%
    19:00 +9°C° 1.1 mm 8 m/s 750 mmHg 57%
    20:00 +7°C° 1.1 mm 8 m/s 750 mmHg 62%
    21:00 +7°C° 1.1 mm 8 m/s 751 mmHg 67%
    22:00 +7°C° 0.3 mm 9 m/s 751 mmHg 62%
    23:00 +7°C° 0.3 mm 9 m/s 751 mmHg 58%
    Voir plus